Location: College Rock
(37.2713°N, 119.1740°W)
Time: 04:33:12
(UTC+00:00)

SJ-12 - Pass Details

Date: 29 October 2020
Orbit: 568 x 585 km, 97.7° (Epoch: 23 November)

Event Time Altitude Azimuth Distance (km) Brightness Sun altitude
Rises 13:30:28 0° 2° (N) 2,802 7.4 -10.2°
Reaches altitude 10° 13:32:44 10° 355° (N) 1,896 6.4 -9.8°
Maximum altitude 13:36:31 37° 287° (WNW) 904 4.4 -9.0°
Drops below altitude 10° 13:40:16 10° 220° (SW) 1,873 6.3 -8.3°
Sets 13:42:30 0° 212° (SSW) 2,764 7.2 -7.8°
